Springfield, CO

3:20 PM MST on December 07, 2016 (GMT -0700)
Springfield

Weather History for KSPD - May, 2012

Change the Weather History Date:

Wednesday, May 30, 2012

  Actual Average Record
Temperature  
Mean Temperature 69 °F -  
Max Temperature 89 °F 81 °F 100 °F (2000)
Min Temperature 49 °F 52 °F 41 °F (2004)
Degree Days  
Heating Degree Days 0 2  
Month to date heating degree days 95 160  
Since 1 July heating degree days 4738 5259  
Cooling Degree Days 4 3  
Month to date cooling degree days 79 47  
Year to date cooling degree days 97 51  
Growing Degree Days 18 (Base 50)    
Moisture  
Dew Point 42 °F    
Average Humidity 43    
Maximum Humidity 75    
Minimum Humidity 10    
Precipitation  
Precipitation 0.00 in 0.09 in 1.44 in (2014)
Month to date precipitation 0.49  
Year to date precipitation 2.19  
Sea Level Pressure  
Sea Level Pressure 29.76 in    
Wind  
Wind Speed 9 mph (NNE)    
Max Wind Speed 36 mph    
Max Gust Speed 44 mph    
T = Trace of Precipitation, MM = Missing Value Source: NWS Daily Summary

Daily Weather History Graph

Daily Weather History Graph

Search for Another Location

Airport or City:

Trip Planner

Search our weather history database for the weather conditions in past years. The results will help you decide how hot, cold, wet, or windy it might be!

Date:

Astronomy

May. 30, 2012 Rise Set
Actual Time 5:32 AM MDT 8:04 PM MDT
Civil Twilight 5:01 AM MDT 8:34 PM MDT
Nautical Twilight 4:24 AM MDT 9:12 PM MDT
Astronomical Twilight 3:42 AM MDT 9:54 PM MDT
Moon 2:51 PM MDT (5/30) 1:51 AM MDT (5/30)
Length of Visible Light 15h 32m
Length of Day
14h 32m
Waxing Gibbous, 71% of the Moon is Illuminated
May 30
Waxing Gibbous
Jun 4
Full
Jun 11
Last Quarter
Jun 19
New
Jun 26
First Quarter

Hourly Weather History & Observations

Time (MDT) Temp. Dew Point Humidity Pressure Visibility Wind Dir Wind Speed Gust Speed Precip Events Conditions
12:56 AM 57.0 °F 42.1 °F 57% 29.83 in - East 6.9 mph - N/A   Unknown
1:56 AM 54.0 °F 42.1 °F 64% 29.81 in - NE 3.5 mph - N/A   Unknown
2:56 AM 51.1 °F 41.0 °F 68% 29.80 in - North 3.5 mph - N/A   Unknown
3:56 AM 50.0 °F 41.0 °F 71% 29.82 in - NNW 5.8 mph - N/A   Unknown
4:56 AM 51.1 °F 41.0 °F 68% 29.81 in - NNW 4.6 mph - N/A   Unknown
5:56 AM 50.0 °F 41.0 °F 71% 29.81 in - NNW 3.5 mph - N/A   Unknown
6:56 AM 57.0 °F 46.0 °F 67% 29.80 in - ESE 4.6 mph - N/A   Unknown
7:56 AM 61.0 °F 52.0 °F 72% 29.82 in - South 4.6 mph - N/A   Unknown
8:56 AM 64.0 °F 54.0 °F 70% 29.81 in - SW 4.6 mph - N/A   Unknown
9:56 AM 68.0 °F 54.0 °F 61% 29.78 in - Calm Calm - N/A   Unknown
10:56 AM 75.9 °F 54.0 °F 46% 29.77 in - Variable 3.5 mph - N/A   Unknown
11:56 AM 79.0 °F 51.1 °F 38% 29.75 in - NE 5.8 mph - N/A   Unknown
12:56 PM 82.0 °F 48.9 °F 31% 29.73 in - NNE 10.4 mph 16.1 mph N/A   Unknown
1:56 PM 84.0 °F 45.0 °F 25% 29.72 in - NNE 6.9 mph - N/A   Unknown
2:56 PM 86.0 °F 39.9 °F 20% 29.70 in - North 5.8 mph 16.1 mph N/A   Unknown
3:56 PM 87.1 °F 26.1 °F 11% 29.68 in - Variable 4.6 mph - N/A   Unknown
4:56 PM 87.1 °F 25.0 °F 10% 29.66 in - NNW 5.8 mph - N/A   Unknown
5:56 PM 87.1 °F 26.1 °F 11% 29.65 in - NNW 11.5 mph - N/A   Unknown
6:56 PM 84.0 °F 25.0 °F 12% 29.64 in - North 10.4 mph - N/A   Unknown
7:56 PM 73.9 °F 32.0 °F 21% 29.65 in - North 5.8 mph - N/A   Unknown
8:56 PM 73.0 °F 37.0 °F 27% 29.72 in - NE 27.6 mph 41.4 mph N/A   Squalls
9:07 PM 71.6 °F 39.2 °F 31% 29.90 in - NE 28.8 mph 40.3 mph N/A   Unknown
9:56 PM 68.0 °F 39.9 °F 36% 29.78 in - NE 27.6 mph 34.5 mph N/A   Unknown
10:56 PM 61.0 °F 50.0 °F 67% 29.82 in - NE 28.8 mph 35.7 mph N/A   Unknown
11:56 PM 59.0 °F 51.1 °F 75% 29.86 in - NE 15.0 mph 24.2 mph N/A   Unknown